Hourly Weather Roundup
Issued by NWS Central Illinois

Home | Current Version | Previous Version | Text Only | Print | Product List | Glossary On
Versions: 1 2 3 4 5 6 7 8 9 10 11 12 13 14 15 16 17 18 19 20 21 22 23 24 25 26 27 28 29 30 31 32 33 34 35 36 37 38 39 40 41 42 43 44 45 46 47 48 49 50
030
NZUS43 KILX 270810
HWRILX

AREA WEATHER ROUNDUP
NATIONAL WEATHER SERVICE, LINCOLN IL
300 AM CDT FRI MAY 27 2016


CITY           SKY/WX    TMP DP  RH WIND       PRES   REMARKS
BLOOMINGTON    CLOUDY    67  66  96 S10       29.92F
CHAMPAIGN      CLOUDY    65  63  93 SE6       29.94S
DANVILLE       CLOUDY    65  64  94 S6        29.92F
DECATUR        CLOUDY    69  63  81 SW9       29.92F
EFFINGHAM      CLOUDY    66  65  96 CALM      29.95S
FLORA          CLOUDY    67  64  90 SE7       29.94F
GALESBURG      RAIN      62  61  95 W12       29.89F
JACKSONVILLE   DRIZZLE   66  64  91 S3        29.89R
LACON          CLOUDY    71  65  79 SW8       29.87F
LAWRENCEVILLE  CLOUDY    67  64  90 SE6       29.96F
LITCHFIELD     CLOUDY    66  62  86 SE10      29.92F
$$


CITY           SKY/WX    TMP DP  RH WIND       PRES   REMARKS
LINCOLN        CLOUDY    69  67  92 CALM      29.90F
MACOMB         LGT RAIN  63  63  99 N10       29.87F
MATTOON        MOCLDY    66  61  84 S7        29.92F
MT CARMEL AP   MOCLDY    65  63  91 SE7       29.96F
OLNEY-NOBLE AP CLOUDY    64  63  94 SE6       29.95F
PARIS          CLOUDY    65  64  97 CALM      29.96F
PEORIA         CLOUDY    69  61  75 W8        29.88F
PONTIAC        CLOUDY    70  66  87 S10G16    29.90F
RANTOUL        CLOUDY    67  65  92 SE6       29.94S
ROBINSON       CLOUDY    65  64  96 SE3       29.97S
SPRINGFIELD    CLOUDY    69  66  90 S8        29.90F
TAYLORVILLE    CLOUDY    67  64  89 S14       29.92S
$$

...REGIONAL REPORTS...


CITY           SKY/WX    TMP DP  RH WIND       PRES   REMARKS
CHICAGO O`HARE CLOUDY    70  67  90 S10       29.89S
KANKAKEE       CLOUDY    67  63  87 S9        29.92F
MOLINE         RAIN      65  60  84 S12G31    29.95R
MOUNT STERLING CLOUDY    64  62  96 CALM      29.87R
MOUNT VERNON   CLOUDY    63  59  88 E3        29.93F
PITTSFIELD     CLOUDY    65  64  97 SE6       29.90R
QUINCY         CLOUDY    64  62  93 W3        29.88R
ROCKFORD       CLOUDY    70  65  84 S10       29.88S
$$


CITY           SKY/WX    TMP DP  RH WIND       PRES   REMARKS
BURLINGTON     LGT RAIN  63  63 100 E13       29.85F
CEDAR RAPIDS   LGT RAIN  62  62 100 E6        29.84F
DES MOINES     CLOUDY    64  59  83 SE8       29.79R
KIRKSVILLE     PTCLDY    61  60  97 S5        29.83F
OTTUMWA        MOCLDY    61  60  97 S6        29.83F
ST LOUIS       CLOUDY    69  65  86 S10       29.89F
$$


CITY           SKY/WX    TMP DP  RH WIND       PRES   REMARKS
TERRE HAUTE    CLOUDY    66  63  90 SE5       29.96F
EVANSVILLE     CLOUDY    66  62  87 SE5       29.98F
INDIANAPOLIS   CLOUDY    65  62  90 S7        29.97S
LAFAYETTE      CLOUDY    65  62  90 SW3       29.95F
MADISON        PTCLDY    61  58  90 CALM      29.86R
MILWAUKEE      MOCLDY    67  61  81 CALM      29.88R
$$






USA.gov is the U.S. government's official web portal to all federal, state and local government web resources and services.